Temp
-12 -12 -12 -12 -11 -11 -12 -11 -11 -11 -11 -11 -11 -11 -11 -11 -11 -11 -10 -10 -10 -10 -10 -10 -10 -10 -10 -10 -11 -11 -10 -10 -10 -10 -10 -10 -10 -10 -10 -10 -10 -10 -10 -10 -10 -9 -9
-12 -13 -12 -12 -12 -12 -12 -12 -12 -12 -11 -11 -11 -11 -11 -11 -12 -11 -11 -11 -11 -10 -10 -10 -10 -10 -10 -10 -11 -11 -11 -11 -11 -11 -11 -11 -10 -11 -10 -11 -11 -10 -10 -10 -10 -10 -10
-13 -13 -13 -13 -13 -13 -13 -13 -13 -12 -12 -12 -12 -12 -12 -12 -12 -12 -11 -11 -11 -11 -11 -11 -10 -10 -9 -10 -11 -12 -12 -12 -12 -11 -11 -12 -11 -11 -11 -11 -11 -11 -10 -10 -10 -10 -10
-13 -13 -13 -13 -13 -13 -13 -13 -13 -13 -13 -12 -12 -12 -12 -12 -12 -12 -12 -12 -11 -11 -11 -11 -11 -10 -9 -12 -12 -12 -12 -12 -12 -12 -12 -13 -11 -11 -11 -12 -12 -11 -11 -11 -11 -11 -10
-13 -14 -13 -13 -13 -13 -13 -13 -13 -13 -13 -13 -13 -12 -12 -12 -12 -12 -12 -12 -12 -12 -11 -11 -11 -11 -10 -10 -12 -12 -13 -13 -12 -12 -12 -13 -12 -12 -12 -12 -12 -12 -11 -11 -12 -12 -11
-14 -14 -14 -14 -14 -14 -14 -13 -13 -13 -14 -13 -13 -13 -13 -13 -13 -13 -13 -12 -12 -12 -12 -12 -12 -11 -11 -11 -12 -12 -12 -13 -13 -13 -13 -13 -12 -12 -13 -13 -12 -12 -12 -12 -12 -12 -12
-15 -15 -15 -14 -14 -14 -14 -14 -14 -14 -14 -14 -14 -13 -14 -13 -13 -13 -13 -13 -13 -13 -12 -12 -11 -11 -10 -11 -12 -13 -13 -13 -13 -14 -14 -14 -12 -12 -13 -13 -12 -12 -12 -12 -13 -13 -13
-15 -15 -15 -15 -15 -15 -15 -15 -15 -14 -14 -14 -14 -14 -14 -14 -14 -14 -14 -14 -14 -13 -13 -13 -12 -11 -12 -12 -10 -13 -14 -13 -13 -13 -13 -13 -12 -13 -13 -13 -13 -13 -13 -13 -13 -13 -13
-16 -16 -16 -16 -16 -15 -15 -15 -15 -15 -15 -15 -15 -15 -15 -15 -15 -15 -15 -14 -14 -13 -14 -12 -13 -12 -13 -13 -12 -13 -14 -13 -13 -13 -13 -13 -12 -14 -13 -13 -13 -13 -13 -13 -13 -13 -13
-17 -16 -16 -16 -16 -16 -16 -16 -16 -16 -16 -16 -16 -16 -16 -16 -16 -15 -16 -16 -16 -16 -16 -12 -12 -12 -12 -13 -12 -13 -15 -14 -13 -13 -14 -13 -13 -13 -14 -14 -14 -13 -14 -14 -13 -14 -13
-18 -18 -17 -17 -17 -17 -17 -18 -18 -17 -17 -17 -16 -17 -16 -16 -16 -16 -16 -16 -17 -16 -17 -14 -13 -13 -13 -13 -13 -13 -13 -15 -14 -14 -14 -12 -13 -14 -14 -14 -14 -13 -14 -14 -13 -13 -13
-19 -19 -19 -18 -18 -18 -18 -18 -18 -18 -18 -18 -18 -18 -17 -18 -18 -18 -17 -17 -17 -18 -16 -15 -14 -14 -14 -14 -14 -14 -14 -14 -15 -14 -14 -13 -13 -13 -13 -13 -14 -14 -14 -14 -14 -14 -12
-20 -19 -19 -19 -19 -19 -19 -19 -18 -19 -19 -18 -18 -18 -18 -18 -18 -19 -19 -19 -19 -18 -15 -16 -15 -15 -15 -15 -15 -15 -16 -16 -16 -16 -15 -14 -13 -13 -13 -14 -14 -14 -14 -14 -14 -13 -11
-21 -21 -21 -21 -21 -21 -20 -20 -20 -20 -20 -20 -19 -19 -19 -19 -20 -20 -20 -20 -20 -17 -17 -18 -16 -16 -16 -16 -16 -16 -16 -16 -16 -17 -16 -15 -14 -14 -14 -14 -14 -15 -15 -14 -14 -14 -13
-24 -24 -23 -23 -24 -24 -24 -23 -23 -22 -21 -21 -21 -21 -21 -21 -21 -21 -22 -23 -20 -18 -18 -18 -18 -18 -17 -17 -17 -17 -17 -17 -16 -16 -16 -17 -16 -15 -15 -15 -15 -14 -14 -15 -15 -15 -14
-26 -26 -25 -25 -25 -25 -26 -26 -26 -25 -24 -23 -23 -23 -22 -23 -22 -22 -23 -23 -22 -19 -19 -19 -19 -20 -18 -18 -19 -19 -18 -17 -17 -18 -17 -16 -16 -16 -16 -16 -15 -15 -15 -15 -15 -15 -14
-27 -26 -26 -26 -26 -26 -27 -27 -27 -27 -26 -24 -24 -23 -24 -24 -24 -24 -24 -23 -23 -22 -21 -21 -21 -21 -20 -19 -20 -20 -19 -19 -18 -18 -18 -17 -17 -16 -17 -16 -16 -16 -16 -15 -15 -15 -15
-27 -27 -27 -27 -27 -27 -27 -27 -27 -27 -27 -26 -26 -25 -25 -25 -25 -24 -24 -24 -25 -23 -23 -23 -22 -22 -21 -21 -20 -21 -20 -20 -19 -19 -19 -19 -18 -17 -17 -17 -17 -16 -16 -16 -15 -15 -15
-28 -28 -28 -27 -27 -27 -27 -28 -28 -28 -28 -28 -27 -26 -26 -26 -26 -25 -25 -25 -25 -24 -24 -24 -23 -23 -23 -23 -22 -21 -21 -21 -20 -20 -19 -20 -20 -18 -17 -17 -17 -16 -17 -16 -15 -16 -15
-28 -28 -28 -28 -28 -28 -28 -28 -28 -28 -28 -28 -28 -27 -26 -27 -26 -26 -26 -25 -26 -26 -25 -25 -24 -24 -24 -23 -22 -23 -22 -22 -21 -21 -21 -20 -20 -20 -19 -18 -18 -17 -17 -17 -17 -17 -16
-29 -29 -29 -29 -29 -29 -28 -29 -29 -29 -29 -29 -28 -27 -27 -27 -27 -27 -27 -26 -26 -26 -26 -26 -25 -24 -24 -24 -23 -24 -22 -22 -22 -22 -22 -20 -21 -21 -20 -19 -18 -18 -18 -18 -18 -17 -17
-29 -29 -29 -29 -29 -29 -29 -29 -30 -31 -30 -30 -29 -28 -27 -28 -28 -28 -27 -27 -27 -27 -27 -26 -26 -26 -25 -25 -24 -23 -23 -23 -22 -23 -23 -22 -21 -21 -20 -19 -20 -19 -19 -19 -19 -18 -18
-30 -30 -29 -30 -29 -29 -29 -29 -30 -30 -31 -30 -30 -29 -29 -28 -29 -29 -28 -27 -28 -28 -27 -27 -27 -26 -26 -25 -25 -25 -24 -23 -23 -24 -23 -23 -22 -22 -21 -20 -21 -20 -19 -20 -19 -19 -19
-30 -30 -30 -30 -30 -30 -30 -30 -30 -30 -30 -31 -31 -31 -31 -30 -29 -29 -29 -29 -29 -28 -27 -28 -27 -27 -27 -27 -26 -25 -25 -24 -23 -23 -23 -22 -22 -22 -22 -22 -22 -20 -20 -20 -20 -19 -19
-30 -30 -30 -30 -30 -30 -30 -30 -30 -30 -30 -30 -31 -30 -31 -31 -31 -31 -30 -30 -30 -29 -28 -28 -27 -27 -27 -27 -27 -26 -26 -25 -24 -23 -23 -23 -23 -23 -23 -23 -22 -21 -20 -20 -20 -20 -20
-30 -30 -30 -30 -30 -30 -30 -30 -30 -30 -30 -30 -30 -31 -30 -31 -31 -32 -31 -31 -30 -30 -29 -28 -28 -28 -28 -27 -27 -27 -26 -25 -25 -24 -24 -24 -24 -23 -24 -24 -22 -21 -21 -22 -23 -20 -21
-30 -30 -30 -30 -30 -30 -30 -30 -30 -30 -30 -30 -31 -31 -30 -30 -31 -31 -31 -31 -31 -30 -30 -29 -28 -28 -28 -28 -28 -27 -26 -26 -25 -24 -24 -24 -24 -24 -23 -24 -23 -22 -22 -22 -22 -20 -22
-29 -30 -30 -31 -30 -30 -30 -30 -30 -31 -31 -30 -31 -31 -30 -31 -31 -31 -31 -31 -31 -31 -31 -30 -29 -28 -28 -28 -27 -27 -26 -26 -25 -25 -25 -25 -24 -24 -24 -24 -23 -22 -23 -23 -22 -22 -22
-30 -30 -30 -31 -30 -30 -30 -31 -31 -31 -31 -31 -31 -31 -31 -30 -30 -31 -31 -31 -31 -31 -30 -30 -30 -29 -28 -28 -27 -26 -26 -26 -26 -25 -25 -25 -25 -25 -24 -24 -23 -23 -23 -23 -23 -22 -23
Height
5747 5748 5750 5753 5755 5757 5758 5761 5763 5765 5766 5768 5770 5771 5773 5775 5776 5778 5780 5782 5783 5786 5787 5789 5792 5794 5796 5800 5807 5798 5801 5803 5803 5804 5806 5807 5807 5807 5807 5806 5807 5807 5808 5807 5808 5807 5807
5733 5735 5737 5739 5741 5744 5746 5748 5750 5752 5754 5756 5758 5760 5762 5762 5764 5767 5769 5770 5772 5774 5777 5777 5779 5782 5787 5790 5792 5790 5791 5792 5792 5794 5796 5797 5796 5796 5797 5798 5796 5797 5797 5799 5799 5799 5798
5719 5722 5724 5727 5729 5729 5732 5736 5737 5740 5742 5743 5745 5748 5750 5751 5753 5754 5757 5758 5760 5762 5766 5766 5769 5771 5776 5785 5778 5780 5781 5783 5783 5784 5785 5785 5785 5786 5787 5788 5787 5788 5788 5789 5792 5792 5791
5705 5708 5709 5712 5714 5717 5718 5721 5723 5726 5728 5731 5733 5734 5737 5739 5742 5742 5745 5747 5748 5750 5753 5756 5758 5760 5765 5772 5768 5769 5770 5772 5773 5772 5775 5773 5772 5776 5778 5778 5779 5779 5778 5782 5784 5783 5782
5687 5689 5692 5696 5699 5700 5704 5706 5708 5711 5715 5716 5719 5721 5723 5725 5727 5731 5734 5734 5736 5738 5741 5745 5746 5748 5756 5756 5758 5760 5761 5761 5761 5762 5763 5763 5764 5765 5766 5769 5768 5770 5769 5771 5773 5774 5771
5668 5671 5675 5679 5682 5685 5686 5690 5692 5695 5697 5700 5702 5706 5708 5710 5712 5716 5719 5721 5721 5725 5729 5732 5735 5740 5746 5744 5743 5747 5750 5750 5749 5750 5751 5753 5754 5754 5757 5760 5759 5758 5756 5757 5760 5767 5762
5650 5654 5657 5661 5665 5668 5670 5673 5676 5678 5682 5682 5686 5690 5691 5694 5697 5699 5704 5706 5710 5712 5715 5720 5723 5728 5732 5734 5734 5733 5735 5739 5741 5740 5741 5742 5743 5748 5750 5748 5749 5749 5748 5748 5755 5756 5754
5633 5635 5639 5642 5646 5650 5654 5656 5658 5662 5665 5667 5669 5672 5677 5679 5683 5684 5687 5689 5692 5696 5700 5707 5711 5716 5720 5718 5721 5724 5721 5725 5728 5730 5730 5731 5733 5741 5739 5740 5740 5740 5741 5743 5745 5746 5742
5613 5617 5620 5624 5628 5632 5634 5638 5640 5644 5648 5651 5653 5656 5661 5665 5668 5671 5672 5674 5676 5679 5681 5698 5699 5705 5706 5706 5710 5716 5708 5712 5716 5717 5718 5721 5728 5729 5728 5730 5732 5732 5732 5735 5735 5736 5732
5592 5596 5599 5602 5607 5611 5615 5617 5621 5626 5630 5634 5637 5641 5646 5649 5654 5655 5657 5660 5662 5664 5661 5685 5686 5690 5692 5691 5698 5699 5700 5700 5703 5707 5707 5709 5714 5715 5720 5721 5724 5723 5726 5724 5724 5724 5724
5571 5575 5579 5582 5586 5590 5594 5596 5600 5604 5609 5614 5619 5622 5627 5631 5635 5639 5642 5646 5646 5651 5645 5669 5672 5676 5676 5677 5679 5683 5683 5685 5692 5694 5697 5703 5702 5704 5705 5714 5710 5711 5714 5712 5710 5712 5713
5552 5555 5558 5561 5567 5570 5574 5577 5581 5585 5590 5594 5599 5603 5609 5614 5619 5619 5624 5626 5629 5633 5636 5649 5658 5660 5662 5662 5664 5668 5670 5670 5676 5678 5680 5689 5689 5692 5696 5697 5699 5700 5699 5701 5701 5701 5700
5529 5533 5537 5540 5543 5546 5551 5555 5559 5564 5570 5575 5580 5586 5592 5596 5602 5602 5605 5605 5607 5613 5633 5635 5640 5645 5646 5650 5652 5654 5655 5659 5662 5665 5668 5671 5675 5678 5680 5681 5685 5687 5687 5689 5689 5688 5691
5507 5510 5515 5519 5521 5524 5527 5531 5535 5540 5547 5553 5559 5566 5572 5580 5581 5583 5586 5583 5584 5608 5618 5618 5621 5625 5630 5635 5642 5642 5642 5646 5649 5652 5654 5658 5663 5665 5670 5672 5674 5674 5676 5678 5675 5676 5682
5485 5489 5493 5499 5502 5506 5507 5510 5512 5517 5526 5532 5538 5544 5554 5561 5562 5565 5569 5558 5571 5594 5598 5603 5605 5608 5614 5620 5623 5628 5629 5634 5637 5639 5645 5646 5648 5650 5655 5656 5660 5662 5662 5669 5666 5667 5668
5467 5471 5475 5480 5486 5489 5492 5494 5496 5498 5505 5513 5519 5527 5539 5540 5543 5546 5547 5548 5557 5574 5579 5583 5587 5589 5598 5607 5606 5613 5617 5622 5626 5628 5632 5636 5635 5639 5643 5645 5647 5649 5654 5654 5652 5654 5654
5452 5455 5459 5465 5470 5474 5478 5480 5482 5486 5489 5497 5504 5511 5523 5523 5525 5527 5527 5534 5546 5554 5559 5564 5568 5573 5583 5591 5593 5599 5604 5610 5613 5616 5620 5625 5624 5627 5629 5633 5638 5640 5640 5640 5643 5643 5645
5438 5442 5446 5450 5456 5460 5465 5468 5471 5474 5477 5483 5489 5497 5507 5505 5509 5511 5517 5525 5531 5539 5542 5549 5554 5559 5566 5572 5578 5583 5590 5594 5599 5600 5605 5610 5612 5613 5617 5621 5625 5628 5630 5629 5630 5632 5634
5424 5428 5432 5437 5442 5447 5452 5456 5459 5463 5467 5470 5475 5483 5490 5490 5492 5500 5507 5512 5516 5524 5528 5533 5540 5545 5551 5556 5564 5568 5575 5579 5582 5586 5590 5598 5598 5601 5606 5610 5611 5616 5617 5620 5619 5618 5618
5409 5413 5418 5423 5428 5433 5439 5444 5448 5450 5453 5457 5464 5471 5477 5479 5485 5490 5494 5500 5504 5510 5513 5518 5525 5532 5537 5542 5550 5554 5561 5564 5569 5574 5577 5581 5586 5589 5593 5595 5599 5598 5602 5605 5606 5607 5610
5396 5399 5404 5409 5414 5420 5425 5431 5436 5439 5441 5444 5451 5460 5466 5469 5474 5478 5481 5488 5492 5497 5501 5507 5512 5519 5525 5527 5534 5541 5552 5553 5557 5558 5561 5568 5573 5576 5580 5583 5586 5587 5588 5591 5594 5597 5598
5386 5390 5392 5396 5402 5408 5413 5418 5423 5427 5431 5432 5440 5447 5454 5457 5461 5465 5470 5480 5483 5488 5491 5497 5502 5505 5508 5514 5525 5530 5533 5538 5540 5543 5549 5554 5559 5563 5567 5570 5569 5574 5579 5580 5583 5585 5589
5374 5379 5384 5389 5393 5398 5403 5407 5412 5415 5419 5420 5430 5437 5441 5445 5449 5453 5461 5467 5471 5475 5480 5486 5490 5493 5501 5509 5506 5512 5516 5522 5525 5531 5538 5541 5548 5552 5555 5559 5558 5560 5571 5572 5572 5576 5578
5361 5367 5373 5379 5385 5390 5395 5400 5403 5405 5408 5415 5421 5425 5426 5431 5435 5442 5447 5452 5457 5463 5469 5476 5480 5486 5492 5493 5495 5500 5505 5509 5513 5521 5527 5534 5538 5541 5544 5548 5546 5556 5558 5561 5562 5566 5566
5348 5355 5362 5368 5374 5381 5387 5392 5396 5400 5403 5409 5414 5417 5417 5417 5423 5429 5434 5440 5444 5450 5458 5463 5474 5477 5479 5485 5487 5491 5495 5498 5505 5511 5518 5525 5526 5531 5532 5535 5537 5545 5550 5551 5552 5555 5559
5335 5344 5352 5359 5365 5371 5377 5383 5389 5393 5398 5403 5408 5411 5412 5414 5419 5422 5425 5430 5435 5439 5446 5455 5462 5466 5472 5477 5480 5482 5485 5493 5495 5500 5507 5512 5515 5514 5521 5521 5523 5537 5538 5539 5537 5547 5552
5324 5333 5342 5350 5357 5363 5369 5375 5382 5387 5392 5396 5403 5405 5405 5410 5415 5418 5421 5424 5426 5430 5435 5441 5449 5456 5460 5467 5472 5476 5479 5484 5486 5492 5497 5501 5504 5504 5511 5511 5514 5528 5530 5527 5528 5545 5538
5316 5322 5330 5340 5349 5356 5362 5368 5374 5381 5386 5390 5398 5399 5403 5408 5411 5414 5417 5420 5422 5424 5425 5429 5435 5444 5452 5458 5465 5470 5472 5475 5479 5483 5487 5490 5494 5497 5500 5503 5507 5518 5518 5520 5526 5524 5526
5309 5315 5322 5331 5341 5350 5357 5363 5369 5375 5381 5385 5390 5396 5399 5401 5409 5409 5412 5414 5416 5416 5417 5418 5423 5432 5440 5451 5458 5462 5465 5469 5474 5477 5481 5483 5486 5488 5491 5496 5503 5505 5508 5511 5513 5514 5516
Wind_Speed
64 63 64 64 64 65 63 65 64 65 64 65 64 64 63 61 60 61 61 61 60 59 58 58 57 56 58 56 45 52 49 50 46 44 46 45 43 45 41 40 41 42 42 41 36 40 39
62 63 64 65 64 64 64 65 67 65 64 64 64 63 63 62 60 60 60 59 59 60 61 59 58 57 59 54 46 48 48 48 46 44 42 43 46 46 46 42 43 41 41 39 39 37 38
60 61 61 62 60 61 61 62 63 63 63 63 62 62 62 61 61 60 61 59 58 58 59 58 58 56 58 50 49 46 47 48 46 45 45 46 52 48 48 44 43 39 39 38 34 33 37
67 66 65 64 63 62 62 62 61 61 62 63 62 62 63 63 63 61 62 61 59 57 57 57 55 57 56 48 51 46 47 45 47 47 48 46 51 48 46 41 37 39 42 35 31 35 39
72 70 70 70 71 68 68 68 67 66 65 64 64 63 62 62 60 62 63 62 59 58 57 56 53 54 52 51 49 47 46 47 49 47 47 47 47 46 43 38 40 40 44 42 40 40 42
70 71 70 70 71 72 70 72 71 71 68 69 69 69 64 64 63 63 62 62 60 58 58 54 53 55 53 51 49 48 46 45 47 48 43 42 45 45 40 36 38 40 46 49 48 41 46
70 71 70 70 69 69 70 69 70 71 72 70 70 71 69 70 69 68 67 67 66 63 61 59 56 54 56 52 50 46 45 41 42 42 41 43 48 44 36 38 38 39 38 40 39 42 43
74 73 73 74 73 72 71 70 70 69 69 71 71 71 72 72 73 71 70 69 67 68 68 63 60 59 55 56 55 46 47 44 46 47 47 48 48 39 41 38 37 39 39 33 29 33 42
76 76 74 74 74 75 75 74 73 72 71 72 71 71 71 73 72 73 72 71 71 72 71 68 65 61 58 59 56 49 50 48 42 44 50 51 46 44 44 40 38 37 42 35 34 35 43
80 80 79 78 76 76 76 76 75 74 73 74 73 74 74 72 71 71 70 71 71 70 73 66 70 66 62 61 60 58 51 49 51 43 45 48 48 47 44 44 43 43 39 41 39 39 43
79 80 80 80 80 80 78 77 78 77 77 76 76 74 73 72 73 72 71 70 71 69 72 69 66 65 65 65 63 60 59 54 55 55 54 49 48 45 46 41 49 49 44 48 48 46 47
78 78 79 81 80 80 79 79 79 78 78 77 76 76 74 72 71 73 72 72 72 71 72 70 67 66 68 67 66 64 59 56 51 54 59 59 62 59 57 55 52 52 50 51 50 51 53
78 78 77 78 79 79 79 78 78 77 76 76 76 75 73 73 72 73 73 75 73 73 70 71 68 68 68 68 68 67 66 60 53 51 50 54 61 61 61 56 52 53 51 50 52 54 50
75 76 76 76 76 77 79 79 79 78 76 75 75 74 74 71 73 74 74 75 77 73 69 69 68 69 68 67 66 66 66 64 65 54 52 50 53 52 50 51 49 49 49 49 53 54 50
74 74 75 74 72 72 72 75 76 77 75 74 74 75 73 72 73 72 67 66 77 70 70 69 67 68 67 66 64 61 61 61 58 57 56 47 46 44 41 45 46 48 52 49 51 53 55
65 65 66 67 66 63 61 61 65 69 71 72 71 69 68 67 67 68 67 66 73 71 69 71 69 65 65 63 61 54 49 56 50 40 42 45 45 45 40 40 43 48 47 47 52 54 56
51 53 54 54 56 55 56 59 61 62 64 64 63 63 58 57 60 61 63 66 64 65 70 70 68 65 62 61 59 56 56 54 55 50 43 36 40 41 44 43 40 42 42 49 49 50 52
48 48 47 47 49 49 51 56 59 60 60 56 54 53 49 52 55 59 59 56 53 56 59 61 64 63 58 59 59 55 53 48 48 49 50 45 41 41 40 42 44 41 41 43 50 54 51
51 50 49 50 49 47 45 53 54 56 57 57 54 50 48 48 53 53 54 53 51 53 53 52 54 58 53 52 54 55 50 47 47 49 50 43 44 45 44 45 42 38 47 45 46 40 45
50 49 47 45 46 47 44 41 46 50 49 50 50 48 47 46 46 48 49 49 51 48 49 49 50 51 46 43 51 51 48 44 43 45 44 46 40 40 40 41 46 40 51 54 40 46 55
39 44 46 47 45 44 44 44 42 41 42 43 47 48 47 44 43 43 44 43 43 46 47 44 47 47 50 54 50 46 35 33 27 38 46 50 46 43 39 27 36 48 42 45 52 45 41
37 31 28 33 38 43 46 46 44 36 40 44 44 47 47 43 40 41 40 39 40 44 43 46 44 47 48 49 48 53 55 47 41 41 41 40 43 43 45 48 47 41 40 42 40 40 46
42 39 34 32 30 27 24 29 38 41 44 47 45 44 46 47 45 41 39 39 41 40 40 45 49 49 45 43 51 54 55 58 53 36 42 43 42 46 46 48 49 50 37 43 44 51 46
38 38 40 38 35 32 30 27 25 28 38 42 39 40 44 46 46 42 40 39 39 44 45 37 42 42 40 42 45 48 56 60 66 59 45 42 48 44 41 48 54 50 50 48 49 42 48
40 36 34 35 37 38 35 31 27 24 20 21 21 20 21 29 34 37 39 40 41 41 42 49 44 40 41 44 43 47 44 51 54 57 59 43 45 37 29 30 50 50 49 53 50 49 38
44 40 36 33 31 33 36 35 31 27 25 25 21 20 18 14 9 16 25 34 40 43 43 41 41 44 42 29 38 39 43 41 44 50 54 57 47 56 39 40 51 49 48 43 47 48 40
33 43 42 36 32 30 30 32 34 31 27 24 20 20 22 15 11 13 14 17 23 32 42 44 44 43 40 42 39 35 36 31 38 38 44 50 56 56 50 40 46 51 55 55 54 47 43
26 32 40 43 36 31 30 28 29 30 27 24 16 19 18 12 13 10 11 9 12 17 25 36 50 46 44 37 35 38 34 27 29 37 37 38 48 49 59 54 48 48 49 53 49 47 46
25 28 32 40 38 34 30 29 28 26 24 22 19 21 17 18 13 14 12 17 22 22 25 26 36 50 46 39 30 30 36 39 34 33 26 29 32 40 49 56 50 49 49 43 43 44 42
Wind_Direction
258 258 259 259 259 259 259 261 261 262 263 264 264 265 266 268 267 267 267 267 265 267 265 267 269 268 266 268 276 276 275 275 275 275 275 278 276 279 275 273 274 275 274 269 265 268 265
256 257 258 259 260 261 262 261 262 262 261 263 265 266 267 267 268 269 268 268 267 266 267 267 266 269 270 269 271 273 274 276 274 273 273 274 278 278 276 274 274 274 271 263 271 268 263
258 257 258 259 261 261 262 263 264 264 264 264 265 266 266 266 266 266 267 267 268 267 267 267 268 268 267 272 270 270 270 272 274 275 273 275 275 273 275 276 272 269 265 263 266 268 273
261 261 261 260 259 260 261 261 261 263 265 265 265 265 266 267 269 268 267 266 265 266 266 267 267 268 266 270 271 270 270 268 268 270 269 268 271 274 276 270 266 262 262 258 266 269 270
262 259 259 260 260 260 261 261 262 262 262 263 264 264 264 265 264 266 266 264 263 263 264 265 267 267 267 268 272 270 269 272 273 270 269 268 269 272 272 264 260 262 260 259 265 265 263
262 262 261 260 261 261 259 260 261 262 260 261 261 261 260 260 260 260 261 262 261 261 262 263 265 267 270 270 269 270 270 268 266 268 268 266 264 263 268 269 267 260 259 258 261 260 261
262 263 263 263 260 259 259 258 258 258 259 259 259 260 260 261 260 258 258 258 259 258 261 264 264 264 268 269 270 268 270 266 261 263 265 264 263 264 264 263 265 268 267 267 268 267 260
262 261 261 261 260 258 257 257 257 257 257 258 258 257 258 257 258 258 259 261 262 261 259 258 258 259 259 263 265 270 266 264 264 266 258 259 262 260 258 260 265 270 273 273 275 265 258
263 264 263 262 261 261 260 258 257 257 257 257 257 258 258 258 259 258 259 259 261 261 262 255 262 259 261 261 261 264 264 266 263 262 258 257 261 255 254 256 262 267 272 273 270 261 259
262 262 261 260 260 260 260 259 259 258 257 257 257 258 258 258 260 261 262 262 261 262 263 255 256 257 259 264 261 262 263 258 259 259 252 252 252 255 254 258 267 266 270 267 260 257 257
264 263 263 262 260 259 258 257 257 256 255 255 255 255 256 257 259 259 260 261 262 261 262 261 258 257 259 262 261 262 267 264 262 261 255 251 256 253 254 258 262 267 264 260 257 254 254
264 264 264 264 264 263 262 261 260 259 258 257 255 255 255 255 255 256 257 257 257 257 258 261 261 260 261 262 263 266 268 268 265 258 260 255 259 263 260 259 262 263 262 260 260 258 259
260 261 261 261 262 262 261 261 261 259 258 259 259 257 256 256 254 255 256 256 256 253 260 260 259 259 259 260 262 264 267 268 269 269 263 260 262 260 260 259 258 256 255 256 258 259 267
255 256 256 255 255 255 257 257 256 255 253 252 254 254 254 254 253 254 255 257 253 256 256 256 258 257 257 259 259 262 263 264 265 267 271 266 263 261 263 261 257 254 254 255 257 260 264
250 249 249 249 249 251 254 255 254 252 249 248 247 247 248 249 252 252 254 258 252 253 254 253 255 256 256 257 258 258 259 261 266 264 258 262 263 262 258 254 249 248 248 253 254 258 262
255 253 251 250 249 250 253 256 257 258 254 252 249 250 249 251 252 254 252 250 256 252 252 250 252 253 252 253 256 254 251 254 254 258 258 261 261 254 253 252 251 248 249 248 249 251 256
254 252 251 252 250 248 248 247 250 253 258 258 256 255 253 254 252 250 248 252 253 254 253 254 253 252 251 250 252 253 254 254 253 254 250 251 251 252 248 247 248 248 247 249 248 253 255
256 253 251 248 247 247 245 242 244 248 253 257 256 255 249 251 249 248 248 249 247 250 252 252 253 255 254 251 249 252 253 251 249 249 250 250 246 244 243 246 244 246 249 250 254 255 255
262 260 256 252 248 244 241 239 244 248 251 255 255 253 249 250 249 248 247 247 239 248 246 249 249 248 247 249 251 251 249 247 244 245 247 247 241 241 244 242 245 239 241 245 241 249 256
258 257 257 255 253 251 246 239 240 246 248 249 252 252 251 250 252 248 243 242 238 238 243 244 245 245 241 240 243 249 252 252 248 244 245 240 240 239 239 247 236 235 241 240 251 252 252
254 254 253 251 250 249 249 249 248 241 239 248 253 252 251 250 249 246 244 240 238 230 239 232 239 241 239 237 235 235 228 235 224 232 233 238 240 239 232 237 253 255 256 246 244 252 254
249 246 246 247 246 244 245 245 245 230 227 232 246 254 254 257 254 252 246 242 234 225 230 231 236 235 236 238 239 227 224 225 228 225 234 244 246 244 237 230 240 247 253 255 256 259 257
242 241 240 239 238 237 238 241 242 240 234 240 249 256 254 253 256 253 254 244 228 222 227 229 237 237 242 241 238 232 225 223 222 233 233 240 244 249 244 234 247 250 245 250 258 257 255
240 239 238 235 235 236 237 237 240 249 242 238 248 255 256 253 249 249 244 242 239 231 220 224 235 235 237 239 242 239 232 232 234 231 229 230 237 243 254 246 252 242 245 244 254 256 252
235 236 237 237 236 234 234 236 238 240 235 232 239 252 261 252 246 242 239 237 236 237 235 230 227 233 239 240 245 245 242 242 241 239 241 231 231 225 242 252 252 247 242 247 256 253 257
228 229 231 232 234 233 234 234 235 238 238 240 240 247 251 243 222 227 235 237 236 235 235 237 230 234 232 239 247 251 248 252 249 241 237 234 230 229 237 247 249 242 242 254 268 253 267
230 226 225 225 229 232 231 232 235 236 239 241 239 243 248 243 226 226 238 242 246 245 239 233 233 225 230 237 245 246 244 254 251 246 241 239 235 238 236 245 251 248 249 260 265 262 271
227 223 221 220 220 225 227 227 231 233 235 237 233 230 233 222 200 219 243 259 275 285 263 240 228 221 222 225 240 239 235 243 251 249 250 250 243 242 241 249 255 250 250 259 264 266 268
226 217 214 216 214 217 220 219 224 219 222 233 233 222 233 246 235 247 271 305 300 291 288 260 232 217 216 218 219 243 252 248 246 238 247 254 256 253 252 253 255 255 254 258 258 267 260